Flag Weather past 2 weeks in Saint-Pierre, Reunion (French)

Now
77 °F

Warm.


Feels Like: 79 °F
Forecast: 77 / 85 °F
Wind: 7 mph from Northeast

Location: Saint Airport-Pierre

Current Time: Nov 26, 2014 at 7:17:05 AM

Latest Report: Nov 26, 2014 at 6:30 AM


Visibility: N/A

Pressure: 29.89 "Hg

Humidity: 57%

Dew point: 61 °F

Location of Saint-PierreLocation

Historic Weather in Saint-Pierre — Graph

°F

Saint-Pierre temperature yesterday

Maximum temperature yesterday: 88 °F (at 12:00 PM)
Minimum temperature yesterday: 75 °F (at 4:30 AM)
Average temperature yesterday: 81 °F

Past Weeks' High & Low Weather Summary

 TemperatureHumidityPressure
High88 °F (Nov 23, 1:30 PM)94% (Nov 15, 9:00 PM)30.09 "Hg (Nov 15, 9:00 PM)
Low70 °F (Nov 14, 4:30 AM)41% (Nov 18, 6:30 AM)29.89 "Hg (Nov 17, 1:00 PM)
Average79 °F70%29.98 "Hg
* Reported Nov 11 6:00 AM — Nov 26 6:00 AM, Saint-Pierre, Weather by CustomWeather, © 2014

Note: Actual official high and low records may vary slightly from our data, if they occured in-between our weather recording intervals... More about our weather records

Advertising

Saint-Pierre weather history for previous 24 hours

 ConditionsComfort  
Time TempWeatherWind HumidityBarometerVisibility
6:00 AM
Nov 26
75 °FMild.7 mph65%29.89 "HgN/A
5:30 AM75 °FMild.6 mph65%29.89 "HgN/A
5:00 AM75 °FScattered clouds.7 mph65%29.89 "HgN/A
4:30 AM75 °FPartly sunny.6 mph69%29.89 "HgN/A
4:00 AM73 °FPassing clouds.7 mph65%29.89 "HgN/A
3:30 AM73 °FPassing clouds.6 mph69%29.89 "HgN/A
3:00 AM75 °FPassing clouds.2 mph61%29.89 "HgN/A
2:30 AM75 °FPartly cloudy.6 mph61%29.89 "HgN/A
2:00 AM75 °FPassing clouds.5 mph65%29.89 "HgN/A
1:30 AM75 °FPassing clouds.5 mph65%29.89 "HgN/A
12:30 AM75 °FMild.5 mph74%29.92 "HgN/A
12:00 AM75 °FMild.6 mph78%29.92 "HgN/A
11:30 PM
Nov 25
77 °FPassing clouds.3 mph74%29.92 "HgN/A
11:00 PM77 °FPassing clouds.2 mph74%29.95 "HgN/A
10:30 PM77 °FWarm.3 mph74%29.95 "HgN/A
10:00 PM79 °FWarm.7 mph74%29.95 "HgN/A
9:30 PM79 °FWarm.2 mph74%29.92 "HgN/A
9:00 PM79 °FPassing clouds.6 mph74%29.92 "HgN/A
8:30 PM81 °FOvercast.6 mph70%29.92 "HgN/A
8:00 PM81 °FPassing clouds.5 mph70%29.92 "HgN/A
7:30 PM81 °FWarm.5 mph70%29.92 "HgN/A
7:00 PM81 °FWarm.7 mph70%29.92 "HgN/A
6:30 PM82 °FWarm.5 mph66%29.89 "HgN/A
6:00 PM82 °FWarm.9 mph62%29.89 "HgN/A
5:30 PM82 °FPassing clouds.14 mph66%29.89 "HgN/A
5:00 PM84 °FPartly sunny.7 mph62%29.89 "HgN/A
4:30 PM82 °FBroken clouds.6 mph66%29.89 "HgN/A
4:00 PM82 °FMostly cloudy.6 mph66%29.92 "HgN/A
3:30 PM84 °FPartly sunny.6 mph58%29.92 "HgN/A
3:00 PM86 °FPartly sunny.8 mph59%29.92 "HgN/A
2:30 PM86 °FScattered clouds.7 mph55%29.92 "HgN/A
2:00 PM86 °FPartly sunny.8 mph55%29.92 "HgN/A
1:30 PM84 °FPartly sunny.6 mph58%29.95 "HgN/A
1:00 PM84 °FMostly cloudy.5 mph58%29.95 "HgN/A
12:30 PM86 °FPartly sunny.9 mph59%29.95 "HgN/A
12:00 PM88 °FPassing clouds.6 mph52%29.95 "HgN/A
11:30 AM86 °FPassing clouds.7 mph55%29.98 "HgN/A
11:00 AM86 °FPassing clouds.6 mph59%29.98 "HgN/A
10:30 AM86 °FPassing clouds.7 mph55%29.98 "HgN/A
10:00 AM86 °FBroken clouds.10 mph55%29.98 "HgN/A
9:30 AM82 °FPassing clouds.12 mph62%30.01 "HgN/A
9:00 AM82 °FWarm.5 mph62%29.98 "HgN/A
8:30 AM84 °FWarm.5 mph58%29.98 "HgN/A
8:00 AM82 °FWarm.13 mph62%29.98 "HgN/A
7:30 AM82 °FWarm.7 mph58%29.98 "HgN/A
7:00 AM81 °FScattered clouds.8 mph70%29.98 "HgN/A
Weather by CustomWeather, © 2014

See weather overviewHow to use our weather pages